INTELSAT 18 (IS-18)

Last updated on Thu Oct 30 2025 00:02:48 GMT+0000 (Coordinated Universal Time)

1 37834U 11056A 25302.54211330 .00000063 00000+0 00000+0 0 9996 2 37834 0.0183 268.4962 0001687 296.3448 208.4816 1.00270953 51499
UTC large
Height (km)
Speed (km/s)
/
Latitude / Longitude
Inclination (degrees)
Orbital Period (minutes)
Azimuth
Elevation
Range (km)
Doppler Factor

Next 0 passes for location: London (51.5072 / 0.1276)

Sorry there are no passes over London.